Tracking 19794 objects as of 23-Jul-2019
HD Live streaming from Space Station
objects crossing your sky now

FENGYUN 1C DEB

Track FENGYUN 1C DEB now!
10-day predictions


NORAD ID: 32171
Int'l Code: 1999-025CTR
Perigee: 758.2 km
Apogee: 1,570.9 km
Inclination: 102.8 °
Period: 108.5 minutes
Semi major axis: 7535 km
RCS: 0.0135 m2 (small)
Launch date: May 10, 1999
Source: People's Republic of China (PRC)
Launch site: Taiyaun Space Center, China (TSC)

Note: This is SATELLITE DEBRIS
aabbcc
Your satellite tracking list
Your tracking list is empty




NASA's NSSDC Master Catalog

Two Line Element Set (TLE):
1 32171U 99025CTR 19174.22155389 -.00000114  00000-0 -49846-4 0  9999
2 32171 102.8246 171.0752 0539226 350.9624  61.5309 13.27176028577558
Source of the keplerian elements: AFSPC